Jackson Evers International Airport Jackson US
ICAO: KJAN
IATA: JAN
Category: Large
Scheduled Services: Yes

Elevation: 346 ft
TransAlt. 18000 ft.

Airport Communications:
APP/DEP:123.9
ATIS:121.05
CTAF:120.9
GND:121.7
ANG COMD POST:26.46
GREENWOOD RDO:122.2
TWR:120.9
UNICOM:122.95

KJAN Zoom In..

If Map Doesn't Load, Click Here

Runways:

(A) RW 16L length 8500 ft width 150 ft
ILS 110.50 / hdg 158

(B) RW 16R length 8500 ft width 150 ft
---- / hdg 158

(C) RW 34L length 8500 ft width 150 ft
ILS 109.30 / hdg 338

(D) RW 34R length 8500 ft width 150 ft
---- / hdg 338

Location; KJAN
Day. 23 / Time. 07.54 Zulu
* Altimeter: 29.96
* Temperature: 22° c. 71.6°f.
* Wind from: 000° Speed 00 kn.
Dewpoint: 22° c.
Visibility: 10 Statute Miles.
Clouds: Clear (automated report).

KJAN 230754Z AUTO 00000KT 10SM CLR 22/22 A2996 RMK AO2 SLP139 T02220217


Wind - Calm.

 
 
jpsmedia.com for Web Design worldairports.se 2018   terms of use